Terminal Aerodrome Forecast
Issued by NWS

Current Version | Previous Version | Text Only | Print | Product List | Glossary On
Versions: 1 2 3 4 5 6 7 8 9 10 11 12 13 14 15 16 17 18 19 20 21 22 23 24 25 26 27 28 29 30 31 32 33
000
FTPA31 PHFO 251100
TAFLNY
TAF
PHNY 251121Z 2512/2612 05010KT P6SM FEW020
     FM252000 24008KT P6SM BKN025
     FM260100 05014KT P6SM SCT030
     FM260600 04008KT P6SM FEW035
      AMD NOT SKED=

USA.gov is the U.S. government's official web portal to all federal, state and local government web resources and services.